STARLINK-4726, 53802

Orbit data source: Space-Track

STARLINK-4726, 53802 is a payload satellite owned by SpaceX/Seattle (US) in LEO that was launched on Sun, 11 Sep 2022 UTC via an FALCON 9 launch vehicle from the Air Force Eastern Test Range (AFETR). Payloads include a variety of satellites, spacecraft, and rockets equipped with specific instruments for various scientific and technological missions. These include communications satellites like Starlink; space stations such as the ISS; scientific satellites like the Hubble; Earth observation satellites from companies like Planet Labs, Umbra, and HawkEye 360; GPS; miniature CubeSats for education and research; and military/defense satellites.

Loading next visibility...
STARLINK-4726 details
Identifier
53802, 2022-111AF
Orbit
LEO
Last TLE update18 hours ago
Origin
Flag of USSpaceX/Seattle (US)
ManufacturerSpaceX/Seattle
MissionOperational Commercial Communications
Bus & MotorSTARLINK, Unknown motor
Mass305 kg wet, ~290 kg dry
Launch date (UTC)
2022-09-11 (2 years ago)
Launch vehicle
FALCON 9
Launch site
Air Force Eastern Test Range (AFETR)
Object type
Payload
Rocket body
Debris
Shape & HBRBox + 1 Pan, 8.86 m
Radar Cross Section13.562 m², Large (>1 m²)

Expand to show TLE details & history

TLE from 18 hours ago
0 STARLINK-4726
1 53802U 22111AF  24356.51293475  .00000315  00000-0  37853-4 0  9990
2 53802  53.2163  93.4827 0001285  76.5617 283.5518 15.08839434126917
Epoch: 2024-12-21T12:18Z
Definitive object data (Epoch: 2024-12-21T12:18:37.562Z)
Latitude-0.00004°
Longitude178.26314°
Altitude540.434 km
Speed7.593 km/s
True Right ascension06h 13m 55s
True Declination0° 00' 00"
Sunlit
Object was in full shadow at TLE epoch
Visualization TLE readout
Latitude42.58657°
Longitude-141.94543°
Altitude543.073 km
Speed7.596 km/s
Apparent Right ascension12h 51m 41s
Apparent Declination7° 07' 23"
Sunlit
Object is in full shadow
Visualization observer readout
Local Sidereal Time05:07:44
Azimuth67.249° ENE
Elevation-14.707°
Doppler factor1
Orbital elements
Apogee altitude540.879 km
Perigee altitude539.101 km
Semi-major axis6,918.127 km
Eccentricity0.0001285
Inclination53.2163°
RAAN93.4827°
Arg. of periapsis76.5617°
True anomaly283.53748°
Mean anomaly283.5518°
Eccentric anomaly283.54464°
Mean motion3.7719 °/min
BSTAR0.000037853
Orbital period95.44 mins
Loading maneuver chart data...
Loading historical data...
Loading historical data...
Loading historical data...
Loading historical data...
Loading historical data...
Loading historical data...
Loading historical data...

STARLINK-4726 Visibility forecast

Observer location: undefined°, undefined

Span
Click to sort rows by Start time (UTC) header in descending order
Start Az.
Max El. time (UTC)
Max El. Az.
Max El.
End time (UTC)
End Az.
7 mins2024-12-22 09:09:03.318Z216.791° SW2024-12-22 09:12:03.318Z143.551° SSE42.554°2024-12-22 09:16:03.318Z54.884° ENE
5 mins2024-12-22 10:50:03.318Z298.861° NW2024-12-22 10:52:03.318Z342.182° N22.04°2024-12-22 10:55:03.318Z30.215° NE
6 mins2024-12-22 15:50:03.318Z318.791° NNW2024-12-22 15:53:03.318Z44.639° NE41.601°2024-12-22 15:56:03.318Z116.474° SE
|